sat.trackr.live / text

‹ back to catalog

STARLINK-5508

NORAD 55639 · 2023-021M

PAYLOAD ACTIVE UNKNOWN

§ Identity

Operator
Country
US
Launch date
2023-02-17
Launch site
AFWTR
Launch vehicle
Mass (kg)
RCS (m²)

Purposes: comms

External: N2YO · Heavens-Above · Gunter

§ Orbital elements

Epoch: 2026-05-25T00:13:04.228608Z

Period
96.11 min
Inclination
69.9992°
Eccentricity
0.0002747
Mean motion
14.98318892 rev/d
Perigee alt
570.2 km
Apogee alt
574.0 km
Semi-major
6,950.2 km
B*
-1.0490e-4
RAAN
352.0152°
Arg perigee
280.9971°
Mean anomaly
79.0879°
Rev number
18,022

§ Raw data

STARLINK-55081 55639U 23021M   26145.00907672 -.00001344  00000+0 -10490-3 0  99952 55639  69.9992 352.0152 0002747 280.9971  79.0879 14.98318892180224

JSON: /api/v1/satellites/55639 · /tle

For live sub-satellite position, see the globe view (requires WebGL).

§ Visibility from observer

Set your observer location to see the next 7 days of passes ≥ 10°. The values pass through the URL so the page stays shareable.

No JS? Fill the form by hand. The geolocation button needs JavaScript.